sat.trackr.live / text

‹ back to catalog

STARLINK-2130

NORAD 47405 · 2021-005BJ

PAYLOAD ACTIVE UNKNOWN

§ Identity

Operator
Country
US
Launch date
2021-01-20
Launch site
AFETR
Launch vehicle
Mass (kg)
RCS (m²)

Purposes: comms

External: N2YO · Heavens-Above · Gunter

§ Orbital elements

Epoch: 2026-05-25T04:35:50.059104Z

Period
94.01 min
Inclination
53.1603°
Eccentricity
0.0001156
Mean motion
15.31701983 rev/d
Perigee alt
469.9 km
Apogee alt
471.5 km
Semi-major
6,848.9 km
B*
3.2891e-4
RAAN
66.6153°
Arg perigee
77.4160°
Mean anomaly
282.6971°
Rev number
29,474

§ Raw data

STARLINK-21301 47405U 21005BJ  26145.19155161  .00009856  00000+0  32891-3 0  99982 47405  53.1603  66.6153 0001156  77.4160 282.6971 15.31701983294744

JSON: /api/v1/satellites/47405 · /tle

For live sub-satellite position, see the globe view (requires WebGL).

§ Visibility from observer

Set your observer location to see the next 7 days of passes ≥ 10°. The values pass through the URL so the page stays shareable.

No JS? Fill the form by hand. The geolocation button needs JavaScript.